Minot AFB, ND

4:37 PM CST on November 21, 2019 (GMT -0600)
Minot Air Force Base

Weather History for KMIB - September, 2019

Change the Weather History Date:

Sunday, September 15, 2019

  Actual Average Record
Temperature  
Mean Temperature 68 °F -  
Max Temperature 86 °F 67 °F 86 °F (1998)
Min Temperature 50 °F 43 °F 29 °F (2011)
Cooling Degree Days 3    
Growing Degree Days 18 (Base 50)    
Moisture  
Dew Point 52 °F    
Average Humidity 62    
Maximum Humidity 90    
Minimum Humidity 29    
Precipitation  
Precipitation 0.00 in - - ()
Sea Level Pressure  
Sea Level Pressure 29.81 in    
Wind  
Wind Speed 5 mph (SSE)    
Max Wind Speed 12 mph    
Max Gust Speed -    
Visibility 10 miles    
Events      
Averages and records for this station are not official NWS values.
T = Trace of Precipitation, MM = Missing Value Source: NWS Daily Summary

Daily Weather History Graph

Daily Weather History Graph

Search for Another Location

Airport or City:

Astronomy

Sep. 15, 2019 Rise Set
Actual Time 7:22 AM CDT 7:58 PM CDT
Civil Twilight 6:50 AM CDT 8:29 PM CDT
Nautical Twilight 6:13 AM CDT 9:07 PM CDT
Astronomical Twilight 5:33 AM CDT 9:46 PM CDT
Moon 9:02 PM CDT (9/15) 8:36 AM CDT (9/15)
Length of Visible Light 13h 39m
Length of Day
12h 36m
Full, 98% of the Moon is Illuminated
Sep 15
Full
Sep 21
Last Quarter
Sep 28
New
Oct 5
First Quarter
Oct 13
Full

Hourly Weather History & Observations

Time (CDT) Temp. Heat Index Dew Point Humidity Pressure Visibility Wind Dir Wind Speed Gust Speed Precip Events Conditions
12:56 AM 54.5 °F - 46.0 °F 73% 29.85 in 10.0 mi SW 8.1 mph - N/A   Clear
1:56 AM 53.4 °F - 46.4 °F 77% 29.86 in 10.0 mi WSW 4.6 mph - N/A   Clear
2:56 AM 54.5 °F - 45.3 °F 71% 29.86 in 10.0 mi SW 6.9 mph - N/A   Clear
3:56 AM 52.3 °F - 46.0 °F 79% 29.86 in 10.0 mi Calm Calm - N/A   Clear
4:56 AM 50.0 °F - 45.7 °F 85% 29.85 in 10.0 mi Calm Calm - N/A   Clear
5:56 AM 50.2 °F - 46.2 °F 86% 29.86 in 10.0 mi Calm Calm - N/A   Clear
6:56 AM 52.3 °F - 47.3 °F 83% 29.86 in 10.0 mi Calm Calm - N/A   Clear
7:56 AM 50.0 °F - 47.1 °F 90% 29.85 in 10.0 mi South 5.8 mph - N/A   Clear
8:56 AM 58.1 °F - 51.6 °F 79% 29.86 in 10.0 mi Calm Calm - N/A   Clear
9:56 AM 71.8 °F - 53.2 °F 52% 29.86 in 10.0 mi Calm Calm - N/A   Clear
10:56 AM 77.5 °F - 55.0 °F 46% 29.84 in 10.0 mi Calm Calm - N/A   Clear
11:56 AM 83.1 °F - 47.5 °F 29% 29.83 in 10.0 mi South 5.8 mph - N/A   Clear
12:56 PM 82.4 °F - 51.3 °F 34% 29.83 in 10.0 mi SSE 8.1 mph - N/A   Clear
1:56 PM 84.0 °F - 51.8 °F 33% 29.81 in 10.0 mi SSE 10.4 mph - N/A   Clear
2:56 PM 85.8 °F - 50.7 °F 30% 29.79 in 10.0 mi SSE 11.5 mph - N/A   Clear
3:56 PM 86.4 °F 84.5 °F 53.8 °F 33% 29.77 in 10.0 mi SE 11.5 mph - N/A   Clear
4:56 PM 86.9 °F 85.6 °F 56.7 °F 36% 29.76 in 10.0 mi SSE 10.4 mph - N/A   Clear
5:56 PM 85.8 °F 85.0 °F 57.9 °F 39% 29.75 in 10.0 mi SSE 10.4 mph - N/A   Clear
6:56 PM 82.2 °F 82.4 °F 59.4 °F 46% 29.75 in 10.0 mi SSE 8.1 mph - N/A   Clear
7:56 PM 73.8 °F - 60.8 °F 64% 29.76 in 10.0 mi SSE 5.8 mph - N/A   Clear
8:56 PM 66.2 °F - 58.5 °F 76% 29.76 in 10.0 mi SE 5.8 mph - N/A   Clear
9:56 PM 62.6 °F - 57.0 °F 82% 29.76 in 10.0 mi ESE 4.6 mph - N/A   Clear
10:56 PM 62.8 °F - 58.1 °F 85% 29.76 in 10.0 mi SSE 4.6 mph - N/A   Clear
11:56 PM 60.3 °F - 57.4 °F 90% 29.75 in 10.0 mi SE 5.8 mph - N/A   Clear